Location: Gwatt
(46.7204°N, 7.6223°E)
Time: 01:15:58
(UTC+00:00)

Envisat - Pass Details

Date: 03 December 2020
Orbit: 764 x 766 km, 98.1° (Epoch: 19 January)

Event Time Altitude Azimuth Distance (km) Brightness Sun altitude
Rises 17:00:32 0° 184° (S) 3,219 6.5 -12.9°
Reaches altitude 10° 17:02:56 10° 191° (S) 2,298 5.9 -13.3°
Maximum altitude 17:07:44 43° 262° (W) 1,076 4.3 -14.0°
Drops below altitude 10° 17:12:35 10° 334° (NNW) 2,315 5.6 -14.8°
Sets 17:15:01 0° 341° (NNW) 3,246 6.3 -15.2°
